This is the latest recevied weather packets stored in our database for station/object DL1GHN-6. If no packets are shown the sender has not sent any weather packets the latest 10 day(s).
| Time | Temp. | Humidity | Pressure | Rain* | Wind** | Luminosity | Snow |
|---|---|---|---|---|---|---|---|
| 1778000718 | 14.44° C | 87% | 1007.5 hPa | 0 mm | - | 63 W/m² | - |
| 1778000417 | 14.44° C | 87% | 1007.5 hPa | 0.25 mm | - | 60 W/m² | - |
| 1778000118 | 14.44° C | 87% | 1007.5 hPa | 0.25 mm | - | 56 W/m² | - |
| 1777999818 | 14.44° C | 87% | 1007.3 hPa | 0.51 mm | - | 54 W/m² | - |
| 1777999518 | 14.44° C | 87% | 1007.4 hPa | 0.51 mm | - | 51 W/m² | - |
| 1777999217 | 14.44° C | 87% | 1007.5 hPa | 2.29 mm | - | 49 W/m² | - |
| 1777998918 | 14.44° C | 86% | 1007.4 hPa | 4.32 mm | - | 46 W/m² | - |
| 1777998617 | 15° C | 86% | 1007.5 hPa | 5.33 mm | - | 39 W/m² | - |
| 1777998317 | 15° C | 87% | 1007.5 hPa | 5.59 mm | - | 30 W/m² | - |
| 1777998017 | 15° C | 87% | 1007.5 hPa | 5.59 mm | - | 26 W/m² | - |
| 1777997719 | 15° C | 86% | 1007.3 hPa | 5.59 mm | - | 21 W/m² | - |
| 1777997417 | 15° C | 86% | 1007.4 hPa | 5.59 mm | - | 21 W/m² | - |
| 1777997118 | 15.56° C | 85% | 1007.4 hPa | 5.59 mm | - | 18 W/m² | - |
| 1777996819 | 15.56° C | 84% | 1007.4 hPa | 5.33 mm | - | 14 W/m² | - |
| 1777996518 | 15.56° C | 83% | 1007.3 hPa | 5.33 mm | - | 11 W/m² | - |
| 1777996218 | 16.11° C | 81% | 1007.2 hPa | 5.08 mm | - | 9 W/m² | - |
| 1777995918 | 16.67° C | 81% | 1007.1 hPa | 5.08 mm | - | 7 W/m² | - |
| 1777995618 | 17.22° C | 80% | 1007.5 hPa | 3.3 mm | - | 5 W/m² | - |
| 1777995319 | 17.78° C | 76% | 1007.1 hPa | 1.52 mm | - | 12 W/m² | - |
| 1777995018 | 18.33° C | 76% | 1007 hPa | 0.25 mm | - | 21 W/m² | - |
| 1777994717 | 18.33° C | 73% | 1007.1 hPa | 0 mm | - | 30 W/m² | - |
| 1777994418 | 18.33° C | 72% | 1007 hPa | 0 mm | - | 42 W/m² | - |
| 1777994118 | 18.89° C | 71% | 1007 hPa | 0 mm | - | 72 W/m² | - |
| 1777993817 | 18.89° C | 73% | 1007 hPa | 0 mm | - | 172 W/m² | - |
| 1777993517 | 18.89° C | 72% | 1007 hPa | 0 mm | - | 207 W/m² | - |
* Rain latest hour (hover to see other rain measurements)
** Current wind speed in m/s (hover to see current wind gust speed)